Location: Härggis
(46.9540°N, 8.4897°E)
Time: 20:17:38
(UTC+00:00)

SL-16 R/B - Pass Details

Date: 30 September 2022
Orbit: 985 x 1007 km, 99.6° (Epoch: 05 December)

Event Time Altitude Azimuth Distance (km) Brightness Sun altitude
Exits shadow 02:44:15 12° 319° (NW) 2,587 4.6 -27.0°
Drops below altitude 10° 02:44:53 10° 322° (NW) 2,770 4.8 -26.9°
Sets 02:47:51 0° 335° (NNW) 3,728 5.6 -26.5°
